EW7239 Weather Reports


time (UTC)temp
F
wind
direction
speed
knots
gust
knots
rain 1hr
in
rain 24hr
in
rain mn
in
humidity
%
barometer
mb
20260902002735 85 192 7.0 12.2 0.00 0.00 0.00 28 1013.8
20260902002235 85 209 7.0 12.2 0.00 0.00 0.00 28 1013.8
20260902001735 85 219 7.0 12.2 0.00 0.00 0.00 28 1013.8
20260902001505 86 209 7.0 13.0 0.00 0.00 0.00 27 1013.8
20260902000735 86 214 7.0 13.0 0.00 0.00 0.00 27 1013.9
20260902000235 86 212 7.0 13.9 0.00 0.00 0.00 26 1013.8
20260901235735 87 211 7.0 13.9 0.00 0.00 0.00 25 1013.8
20260901235235 87 200 7.0 13.0 0.00 0.00 0.00 25 1013.8
20260901234736 87 219 7.0 13.0 0.00 0.00 0.00 25 1013.8
20260901234230 87 202 7.0 13.9 0.00 0.00 0.00 25 1013.7
20260901233743 88 215 6.1 13.9 0.00 0.00 0.00 25 1013.8
20260901233231 88 213 6.1 12.2 0.00 0.00 0.00 25 1013.7
20260901232730 88 232 7.0 13.0 0.00 0.00 0.00 25 1013.7
20260901232226 88 215 7.0 13.0 0.00 0.00 0.00 24 1013.8
20260901231727 89 211 6.1 12.2 0.00 0.00 0.00 24 1013.7
20260901231228 89 223 6.1 10.4 0.00 0.00 0.00 23 1013.8
20260901230726 89 225 6.1 12.2 0.00 0.00 0.00 24 1013.7
20260901230227 89 223 6.1 12.2 0.00 0.00 0.00 24 1013.7
20260901225726 88 224 7.0 12.2 0.00 0.00 0.00 25 1013.8
20260901225454 89 222 7.0 13.9 0.00 0.00 0.00 24 1013.8
20260901224723 88 213 7.8 13.9 0.00 0.00 0.00 25 1013.8
20260901224218 89 222 7.8 13.9 0.00 0.00 0.00 26 1013.8
20260901223720 89 224 7.0 13.9 0.00 0.00 0.00 27 1013.8
20260901223220 90 203 6.1 13.9 0.00 0.00 0.00 27 1013.9
20260901222718 89 209 7.0 12.2 0.00 0.00 0.00 29 1013.8
20260901222217 89 183 7.0 12.2 0.00 0.00 0.00 29 1013.8
20260901221716 90 285 7.0 14.8 0.00 0.00 0.00 29 1013.9
20260901221217 90 209 6.1 14.8 0.00 0.00 0.00 30 1013.9
20260901220716 90 212 6.1 13.0 0.00 0.00 0.00 29 1013.9
20260901220231 90 207 7.0 13.0 0.00 0.00 0.00 28 1014.0
20260901215717 90 215 7.0 14.8 0.00 0.00 0.00 29 1014.0
20260901215217 90 215 6.1 14.8 0.00 0.00 0.00 27 1014.1
20260901214712 91 238 5.2 10.4 0.00 0.00 0.00 26 1014.2
20260901214211 90 215 6.1 13.0 0.00 0.00 0.00 26 1014.1
20260901213943 90 220 7.0 13.0 0.00 0.00 0.00 26 1014.2
20260901213211 90 219 7.0 13.9 0.00 0.00 0.00 25 1014.1
20260901212711 90 224 7.0 13.9 0.00 0.00 0.00 24 1014.3
20260901212209 90 198 6.1 11.3 0.00 0.00 0.00 23 1014.3
20260901211706 91 219 6.1 11.3 0.00 0.00 0.00 21 1014.3
20260901211205 91 232 5.2 11.3 0.00 0.00 0.00 20 1014.4
20260901210704 91 221 4.3 11.3 0.00 0.00 0.00 19 1014.4
20260901210204 90 226 6.1 11.3 0.00 0.00 0.00 18 1014.4
20260901205704 90 228 7.0 12.2 0.00 0.00 0.00 18 1014.5
20260901205203 90 252 5.2 12.2 0.00 0.00 0.00 19 1014.4
20260901204703 90 224 5.2 12.2 0.00 0.00 0.00 20 1014.5
20260901203705 90 213 5.2 12.2 0.00 0.00 0.00 21 1014.5
20260901203434 91 224 4.3 12.2 0.00 0.00 0.00 20 1014.6
20260901202934 90 185 4.3 9.6 0.00 0.00 0.00 22 1014.7
20260901202203 90 225 4.3 7.8 0.00 0.00 0.00 23 1014.7
20260901201932 90 198 5.2 9.6 0.00 0.00 0.00 24 1014.8
20260901201200 90 216 4.3 9.6 0.00 0.00 0.00 25 1014.9
20260901200702 90 225 3.5 7.8 0.00 0.00 0.00 25 1015.0
20260901200200 89 221 3.5 10.4 0.00 0.00 0.00 25 1015.0
20260901195702 89 226 4.3 10.4 0.00 0.00 0.00 27 1015.2
20260901195428 88 231 3.5 8.7 0.00 0.00 0.00 30 1015.2
20260901194657 88 215 3.5 7.8 0.00 0.00 0.00 30 1015.3
20260901194157 87 216 3.5 7.8 0.00 0.00 0.00 31 1015.3
20260901193652 87 214 3.5 6.1 0.00 0.00 0.00 32 1015.3
20260901193151 87 234 2.6 6.1 0.00 0.00 0.00 31 1015.5
20260901192649 87 248 3.5 7.0 0.00 0.00 0.00 31 1015.6
20260901192421 86 244 2.6 7.0 0.00 0.00 0.00 31 1015.7
20260901191649 85 221 2.6 7.0 0.00 0.00 0.00 36 1015.7
20260901191149 85 223 3.5 7.0 0.00 0.00 0.00 34 1015.7
20260901190649 84 231 3.5 7.0 0.00 0.00 0.00 33 1015.8
20260901190149 85 231 4.3 7.0 0.00 0.00 0.00 32 1015.8
20260901185649 85 231 4.3 7.8 0.00 0.00 0.00 31 1015.8
20260901185148 85 257 4.3 7.8 0.00 0.00 0.00 34 1015.8
20260901184644 84 236 3.5 7.0 0.00 0.00 0.00 38 1015.9
20260901184148 84 217 3.5 7.0 0.00 0.00 0.00 37 1015.9
20260901183642 83 217 3.5 7.0 0.00 0.00 0.00 40 1016.0
20260901183141 82 225 3.5 6.1 0.00 0.00 0.00 42 1016.1
20260901182641 82 225 3.5 6.1 0.00 0.00 0.00 45 1016.2
20260901182138 82 215 3.5 5.2 0.00 0.00 0.00 46 1016.2
20260901181639 81 213 3.5 7.0 0.00 0.00 0.00 47 1016.2
20260901181140 81 214 2.6 7.0 0.00 0.00 0.00 44 1016.2
20260901180640 81 211 2.6 6.1 0.00 0.00 0.00 49 1016.2
20260901180139 81 232 1.7 7.0 0.00 0.00 0.00 51 1016.2
20260901175639 80 233 1.7 7.0 0.00 0.00 0.00 55 1016.3
20260901175139 79 223 1.7 4.3 0.00 0.00 0.00 55 1016.3
20260901174909 79 223 1.7 4.3 0.00 0.00 0.00 56 1016.3
20260901174136 79 223 2.6 5.2 0.00 0.00 0.00 57 1016.3
20260901173637 78 223 1.7 5.2 0.00 0.00 0.00 58 1016.3
20260901173138 78 223 0.9 3.5 0.00 0.00 0.00 59 1016.3
20260901172636 78 223 1.7 3.5 0.00 0.00 0.00 61 1016.3
20260901172137 77 223 1.7 4.3 0.00 0.00 0.00 62 1016.2
20260901171637 77 223 1.7 4.3 0.00 0.00 0.00 63 1016.2
20260901171137 77 223 1.7 4.3 0.00 0.00 0.00 64 1016.2
20260901170907 76 223 1.7 4.3 0.00 0.00 0.00 65 1016.2
20260901170140 76 223 0.9 3.5 0.00 0.00 0.00 68 1016.1
20260901165636 75 223 1.7 3.5 0.00 0.00 0.00 69 1016.2
20260901165138 74 223 1.7 2.6 0.00 0.00 0.00 71 1016.2
20260901164636 73 223 1.7 3.5 0.00 0.00 0.00 72 1016.2
20260901164137 73 223 1.7 3.5 0.00 0.00 0.00 73 1016.2
20260901163638 73 223 0.9 3.5 0.00 0.00 0.00 75 1016.2
20260901163136 72 223 0.0 0.9 0.00 0.00 0.00 77 1016.1
20260901162636 71 223 0.0 0.0 0.00 0.00 0.00 78 1016.1
20260901162136 71 223 0.0 0.0 0.00 0.00 0.00 79 1016.1
20260901161638 70 223 0.0 0.0 0.00 0.00 0.00 80 1016.0
20260901161136 70 223 0.0 0.0 0.00 0.00 0.00 81 1016.0
20260901160638 70 223 0.0 0.0 0.00 0.00 0.00 82 1016.1
20260901160136 69 223 0.9 3.5 0.00 0.00 0.00 83 1016.0
20260901155635 69 223 0.9 3.5 0.00 0.00 0.00 83 1016.0
20260901155407 69 223 0.0 1.7 0.00 0.00 0.00 84 1016.1
20260901154634 68 223 0.9 4.3 0.00 0.00 0.00 84 1016.1
20260901154132 68 223 0.9 4.3 0.00 0.00 0.00 84 1016.2
20260901153632 67 223 0.0 2.6 0.00 0.00 0.00 84 1016.1
20260901153401 67 223 0.0 2.6 0.00 0.00 0.00 84 1016.1
20260901152628 67 223 0.9 3.5 0.00 0.00 0.00 84 1016.0
20260901152140 66 223 0.9 3.5 0.00 0.00 0.00 84 1016.1
20260901151627 66 223 0.0 0.9 0.00 0.00 0.00 84 1016.1
20260901151128 66 223 0.0 2.6 0.00 0.00 0.00 84 1016.1
20260901150858 66 223 0.9 2.6 0.00 0.00 0.00 83 1016.0
20260901150125 66 223 1.7 4.3 0.00 0.00 0.00 83 1015.9
20260901145623 65 223 1.7 4.3 0.00 0.00 0.00 83 1016.0
20260901145354 65 223 1.7 4.3 0.00 0.00 0.00 84 1016.0
20260901144120 65 223 1.7 4.3 0.00 0.00 0.00 83 1016.0
20260901143619 65 223 1.7 4.3 0.00 0.00 0.00 83 1015.9
20260901143118 65 223 1.7 3.5 0.00 0.00 0.00 84 1015.9
20260901142619 65 223 0.9 3.5 0.00 0.00 0.00 84 1015.8
20260901142116 64 223 0.9 2.6 0.00 0.00 0.00 84 1015.6
20260901141618 64 223 0.9 2.6 0.00 0.00 0.00 84 1015.6
20260901141117 64 223 0.9 2.6 0.00 0.00 0.00 84 1015.5
20260901140617 64 223 0.9 2.6 0.00 0.00 0.00 84 1015.4
20260901140122 64 223 0.9 1.7 0.00 0.00 0.00 84 1015.3
20260901135613 64 223 0.9 1.7 0.00 0.00 0.00 85 1015.2
20260901135112 64 223 0.0 1.7 0.00 0.00 0.00 85 1015.2
20260901134614 64 223 0.0 1.7 0.00 0.00 0.00 84 1015.2
20260901134342 64 223 0.9 2.6 0.00 0.00 0.00 85 1015.1
20260901133608 64 223 0.9 2.6 0.00 0.00 0.00 85 1015.0
20260901133110 64 223 0.9 2.6 0.00 0.00 0.00 85 1014.9
20260901132608 64 223 0.9 2.6 0.00 0.00 0.00 85 1014.8
20260901132110 64 223 0.0 2.6 0.00 0.00 0.00 85 1014.8
20260901131850 64 223 0.0 0.0 0.00 0.00 0.00 85 1014.9
20260901131107 64 223 0.0 0.0 0.00 0.00 0.00 85 1014.8
20260901130605 64 223 0.0 0.0 0.00 0.00 0.00 85 1014.8
20260901130118 64 223 0.0 0.0 0.00 0.00 0.00 84 1014.7
20260901125603 64 223 0.0 0.0 0.00 0.00 0.00 84 1014.7
20260901125100 65 223 0.0 0.0 0.00 0.00 0.00 85 1014.7
20260901124601 64 223 0.0 0.0 0.00 0.00 0.00 84 1014.7
20260901124101 64 223 0.0 0.0 0.00 0.00 0.00 84 1014.7
20260901123557 65 223 0.0 0.0 0.00 0.00 0.00 85 1014.7
20260901123058 65 223 0.0 0.0 0.00 0.00 0.00 84 1014.7
20260901122554 65 223 0.0 0.0 0.00 0.00 0.00 84 1014.7
20260901122325 65 223 0.0 0.0 0.00 0.00 0.00 84 1014.7
20260901121553 65 223 0.0 1.7 0.00 0.00 0.00 84 1014.8
20260901121051 65 223 0.0 1.7 0.00 0.00 0.00 84 1014.7
20260901120821 65 223 0.0 1.7 0.00 0.00 0.00 84 1014.7
20260901120100 65 223 0.0 1.7 0.00 0.00 0.00 84 1014.8
20260901115546 65 223 0.0 1.7 0.00 0.00 0.00 84 1014.8
20260901115318 65 223 0.0 1.7 0.00 0.00 0.00 84 1014.9
20260901114547 65 223 0.0 2.6 0.00 0.00 0.00 84 1014.9
20260901113545 65 223 0.0 1.7 0.00 0.00 0.00 84 1014.9
20260901113045 65 223 0.9 2.6 0.00 0.00 0.00 84 1015.0
20260901112544 65 223 0.9 3.5 0.00 0.00 0.00 84 1015.0
20260901112041 65 223 1.7 3.5 0.00 0.00 0.00 83 1014.9
20260901111541 65 223 1.7 3.5 0.00 0.00 0.00 83 1015.0
20260901110536 65 223 0.9 3.5 0.00 0.00 0.00 83 1015.0
20260901110038 65 223 0.9 2.6 0.00 0.00 0.00 83 1015.0
20260901105534 65 223 0.0 2.6 0.00 0.00 0.00 83 1015.1
20260901105033 66 223 0.0 1.7 0.00 0.00 0.00 83 1015.0
20260901104533 66 223 0.9 2.6 0.00 0.00 0.00 83 1015.0
20260901104027 66 223 0.9 2.6 0.00 0.00 0.00 82 1014.9
20260901103525 66 223 0.9 1.7 0.00 0.00 0.00 83 1015.0
20260901103025 66 223 0.9 1.7 0.00 0.00 0.00 82 1014.9
20260901102524 66 223 0.0 1.7 0.00 0.00 0.00 82 1014.9
20260901102252 66 223 0.0 1.7 0.00 0.00 0.00 82 1014.9
20260901101521 66 223 0.0 1.7 0.00 0.00 0.00 82 1015.0
20260901101017 66 223 0.9 2.6 0.00 0.00 0.00 82 1014.8
20260901100531 66 223 0.9 2.6 0.00 0.00 0.00 82 1014.9
20260901100017 66 223 0.9 1.7 0.00 0.00 0.00 82 1015.1
20260901095516 66 223 0.0 1.7 0.00 0.00 0.00 81 1015.0
20260901095248 66 223 0.0 0.9 0.00 0.00 0.00 81 1015.0
20260901094517 66 223 0.0 0.9 0.00 0.00 0.00 81 1015.0
20260901094246 66 223 0.0 1.7 0.00 0.00 0.00 80 1015.0
20260901093514 66 223 0.0 1.7 0.00 0.00 0.00 81 1014.9
20260901093244 67 223 0.0 1.7 0.00 0.00 0.00 80 1014.9
20260901092512 67 223 0.0 1.7 0.00 0.00 0.00 80 1014.9
20260901092009 67 223 0.9 1.7 0.00 0.00 0.00 80 1014.9
20260901091509 67 223 0.9 3.5 0.00 0.00 0.00 80 1014.9
20260901091237 67 223 0.9 3.5 0.00 0.00 0.00 80 1014.9
20260901090506 67 223 0.9 3.5 0.00 0.00 0.00 80 1014.8
20260901090006 67 223 0.9 2.6 0.00 0.00 0.00 80 1014.8
20260901085505 67 223 0.9 2.6 0.00 0.00 0.00 79 1014.8
20260901085236 67 223 0.9 2.6 0.00 0.00 0.00 79 1014.8
20260901084503 67 223 0.9 2.6 0.00 0.00 0.00 79 1014.8
20260901084233 67 223 0.9 3.5 0.00 0.00 0.00 78 1014.9
20260901083503 67 223 0.9 3.5 0.00 0.00 0.00 78 1014.9
20260901083003 67 223 0.9 3.5 0.00 0.00 0.00 78 1014.9
20260901082503 68 223 0.9 3.5 0.00 0.00 0.00 78 1014.9
20260901082002 68 223 0.9 2.6 0.00 0.00 0.00 77 1014.8
20260901081458 68 223 0.9 2.6 0.00 0.00 0.00 77 1014.8
20260901081000 68 223 1.7 2.6 0.00 0.00 0.00 77 1014.8
20260901080456 68 223 1.7 3.5 0.00 0.00 0.00 76 1014.8
20260901080228 68 223 1.7 3.5 0.00 0.00 0.00 76 1014.9
20260901075724 69 223 1.7 4.3 0.00 0.00 0.00 76 1014.9
20260901075225 69 223 1.7 4.3 0.00 0.00 0.00 75 1015.0
20260901074453 69 223 2.6 4.3 0.00 0.00 0.00 75 1015.0
20260901074217 69 223 2.6 5.2 0.00 0.00 0.00 74 1015.0
20260901073445 69 223 2.6 5.2 0.00 0.00 0.00 74 1014.9
20260901072942 69 223 2.6 5.2 0.00 0.00 0.00 73 1014.9
20260901072445 70 223 2.6 5.2 0.00 0.00 0.00 73 1014.8
20260901071941 70 223 2.6 4.3 0.00 0.00 0.00 72 1014.9
20260901071442 70 223 2.6 4.3 0.00 0.00 0.00 72 1014.7
20260901070940 70 223 2.6 4.3 0.00 0.00 0.00 72 1014.7
20260901070453 70 223 1.7 3.5 0.00 0.00 0.00 71 1014.8
20260901065942 71 223 1.7 3.5 0.00 0.00 0.00 71 1014.8
20260901065435 71 223 1.7 2.6 0.00 0.00 0.00 71 1014.8
20260901064936 71 223 1.7 3.5 0.00 0.00 0.00 70 1014.7
20260901064433 71 223 0.9 3.5 0.00 0.00 0.00 69 1014.7
20260901063934 71 223 0.9 2.6 0.00 0.00 0.00 70 1014.7
20260901063434 71 223 0.9 2.6 0.00 0.00 0.00 70 1014.6
20260901062935 71 223 0.9 2.6 0.00 0.00 0.00 70 1014.7
20260901062433 71 223 1.7 2.6 0.00 0.00 0.00 70 1014.7
20260901062200 71 223 1.7 2.6 0.00 0.00 0.00 69 1014.7
20260901061428 71 223 1.7 2.6 0.00 0.00 0.00 69 1014.7
20260901060927 71 223 1.7 4.3 0.00 0.00 0.00 69 1014.7
20260901060428 72 223 1.7 4.3 0.00 0.00 0.00 68 1014.7
20260901055926 72 223 1.7 4.3 0.00 0.00 0.00 68 1014.7
20260901055425 72 223 1.7 3.5 0.00 0.00 0.00 68 1014.7
20260901054925 72 223 1.7 4.3 0.00 0.00 0.00 68 1014.7
20260901054425 72 223 1.7 4.3 0.00 0.00 0.00 67 1014.7
20260901053927 72 223 1.7 4.3 0.00 0.00 0.00 67 1014.7
20260901053426 72 223 2.6 3.5 0.00 0.00 0.00 67 1014.7
20260901052425 72 223 2.6 5.2 0.00 0.00 0.00 67 1014.6
20260901051926 72 223 1.7 5.2 0.00 0.00 0.00 67 1014.6
20260901051658 72 222 1.7 3.5 0.00 0.00 0.00 67 1014.5
20260901050926 72 222 1.7 3.5 0.00 0.00 0.00 67 1014.5
20260901050425 72 222 1.7 3.5 0.00 0.00 0.00 67 1014.5
20260901045925 72 222 0.9 3.5 0.00 0.00 0.00 67 1014.5
20260901045423 72 222 0.9 2.6 0.00 0.00 0.00 66 1014.5
20260901045155 72 222 0.9 2.6 0.00 0.00 0.00 66 1014.5
20260901044424 72 222 1.7 2.6 0.00 0.00 0.00 65 1014.5
20260901043925 72 222 1.7 4.3 0.00 0.00 0.00 65 1014.4
20260901043422 72 222 2.6 4.3 0.00 0.00 0.00 65 1014.3
20260901042921 73 222 1.7 4.3 0.00 0.00 0.00 64 1014.3
20260901042421 73 222 0.9 4.3 0.00 0.00 0.00 64 1014.3
20260901042151 73 222 1.7 3.5 0.00 0.00 0.00 63 1014.2
20260901041417 73 222 1.7 3.5 0.00 0.00 0.00 63 1014.1
20260901040917 73 222 2.6 6.1 0.00 0.00 0.00 62 1014.0
20260901040417 74 222 3.5 6.1 0.00 0.00 0.00 62 1013.8
20260901040145 74 221 4.3 6.1 0.00 0.00 0.00 62 1013.7
20260901035412 74 224 3.5 7.0 0.00 0.00 0.00 62 1013.6
20260901034913 74 224 3.5 7.8 0.00 0.00 0.00 61 1013.6
20260901034409 74 224 4.3 7.8 0.00 0.00 0.00 61 1013.5
20260901033910 75 227 3.5 7.0 0.00 0.00 0.00 61 1013.3
20260901033410 75 242 4.3 9.6 0.00 0.00 0.00 61 1013.1
20260901032910 75 229 5.2 9.6 0.00 0.00 0.00 60 1013.1
20260901032405 75 230 4.3 8.7 0.00 0.00 0.00 60 1013.0
20260901031907 76 227 4.3 9.6 0.00 0.00 0.00 60 1012.9
20260901031404 76 226 5.2 9.6 0.00 0.00 0.00 59 1012.9
20260901030904 76 221 6.1 9.6 0.00 0.00 0.00 59 1013.0
20260901030401 76 219 6.1 11.3 0.00 0.00 0.00 58 1012.9
20260901025903 76 246 6.1 11.3 0.00 0.00 0.00 57 1012.8
20260901025402 77 226 6.1 11.3 0.00 0.00 0.00 57 1012.7
20260901024902 77 217 6.1 9.6 0.00 0.00 0.00 56 1012.7
20260901024403 77 219 6.1 10.4 0.00 0.00 0.00 55 1012.8
20260901023857 78 223 6.1 10.4 0.00 0.00 0.00 55 1012.7
20260901023357 78 219 6.1 8.7 0.00 0.00 0.00 53 1012.7
20260901022857 78 215 5.2 8.7 0.00 0.00 0.00 52 1012.6
20260901021859 79 226 6.1 10.4 0.00 0.00 0.00 49 1012.5
20260901021407 80 223 6.1 10.4 0.00 0.00 0.00 47 1012.5
20260901020854 80 223 6.1 10.4 0.00 0.00 0.00 45 1012.3
20260901020354 80 218 7.0 10.4 0.00 0.00 0.00 43 1012.3
20260901015852 81 207 6.1 9.6 0.00 0.00 0.00 41 1012.2
20260901015350 81 223 6.1 12.2 0.00 0.00 0.00 39 1012.3
20260901014851 82 209 6.1 12.2 0.00 0.00 0.00 37 1012.3
20260901014348 83 217 5.2 10.4 0.00 0.00 0.00 36 1012.3
20260901014120 83 227 6.1 10.4 0.00 0.00 0.00 35 1012.3
20260901013346 83 221 6.1 10.4 0.00 0.00 0.00 36 1012.3
20260901012846 83 231 7.0 10.4 0.00 0.00 0.00 35 1012.3
20260901012617 83 222 7.0 12.2 0.00 0.00 0.00 35 1012.3
20260901011847 84 218 7.0 12.2 0.00 0.00 0.00 35 1012.2
20260901011343 85 230 6.1 10.4 0.00 0.00 0.00 37 1012.2
20260901011113 85 233 7.0 13.0 0.00 0.00 0.00 36 1012.2
20260901010339 85 224 7.0 13.0 0.00 0.00 0.00 36 1012.2
20260901005839 85 226 7.0 13.9 0.00 0.00 0.00 36 1012.2
20260901005612 85 227 7.0 13.9 0.00 0.00 0.00 35 1012.2
20260901004838 86 242 7.0 13.0 0.00 0.00 0.00 34 1012.2
20260901004338 87 219 7.0 13.9 0.00 0.00 0.00 34 1012.2
20260901003836 87 238 7.0 13.9 0.00 0.00 0.00 34 1012.1
20260901003336 87 228 7.8 14.8 0.00 0.00 0.00 34 1012.2